TimeEDT,TemperatureF,Dew PointF,Humidity,Sea Level PressureIn,VisibilityMPH,Wind Direction,Wind SpeedMPH,Gust SpeedMPH,PrecipitationIn,Events,Conditions,WindDirDegrees,DateUTC
12:15 AM,69.8,66.2,88,29.99,5.0,SE,5.8,-,N/A,,Clear,140,2013-06-17 04:15:00
12:35 AM,69.8,66.2,88,29.99,5.0,SE,5.8,-,N/A,,Clear,140,2013-06-17 04:35:00
12:55 AM,69.8,66.2,88,29.99,5.0,SSE,6.9,-,N/A,,Clear,160,2013-06-17 04:55:00
1:15 AM,69.8,66.2,88,29.98,5.0,SSE,5.8,-,N/A,,Clear,150,2013-06-17 05:15:00
1:35 AM,69.8,66.2,88,29.98,6.0,SSE,4.6,-,N/A,,Clear,150,2013-06-17 05:35:00
1:55 AM,69.8,66.2,88,29.98,7.0,SSE,3.5,-,N/A,,Partly Cloudy,150,2013-06-17 05:55:00
2:15 AM,68.0,64.4,88,29.97,4.0,Calm,Calm,-,N/A,,Partly Cloudy,0,2013-06-17 06:15:00
2:35 AM,68.0,64.4,88,29.97,3.0,NNE,3.5,-,N/A,,Clear,20,2013-06-17 06:35:00
2:55 AM,68.0,64.4,88,29.97,3.0,East,3.5,-,N/A,,Partly Cloudy,90,2013-06-17 06:55:00
3:15 AM,66.2,64.4,94,29.97,3.0,NE,3.5,-,N/A,,Clear,40,2013-06-17 07:15:00
3:35 AM,66.2,64.4,94,29.97,3.0,Calm,Calm,-,N/A,,Clear,0,2013-06-17 07:35:00
3:55 AM,66.2,64.4,94,29.97,4.0,Calm,Calm,-,N/A,,Clear,0,2013-06-17 07:55:00
4:15 AM,66.2,64.4,94,29.97,0.8,Calm,Calm,-,N/A,,Unknown,0,2013-06-17 08:15:00
4:35 AM,66.2,64.4,94,29.97,1.0,Calm,Calm,-,N/A,,Mostly Cloudy,0,2013-06-17 08:35:00
4:55 AM,66.2,64.4,94,29.97,5.0,Calm,Calm,-,N/A,,Mostly Cloudy,0,2013-06-17 08:55:00
5:15 AM,66.2,64.4,94,29.97,4.0,Calm,Calm,-,N/A,,Scattered Clouds,0,2013-06-17 09:15:00
5:35 AM,66.2,64.4,94,29.97,3.0,NNE,3.5,-,N/A,,Partly Cloudy,30,2013-06-17 09:35:00
5:55 AM,66.2,64.4,94,29.97,5.0,Calm,Calm,-,N/A,,Partly Cloudy,0,2013-06-17 09:55:00
6:15 AM,66.2,64.4,94,29.98,4.0,Calm,Calm,-,N/A,,Clear,0,2013-06-17 10:15:00
6:35 AM,66.2,64.4,94,29.97,3.0,Calm,Calm,-,N/A,,Clear,0,2013-06-17 10:35:00
6:55 AM,66.2,64.4,94,29.97,3.0,Calm,Calm,-,N/A,,Clear,0,2013-06-17 10:55:00
7:15 AM,66.2,64.4,94,29.97,3.0,Calm,Calm,-,N/A,,Partly Cloudy,0,2013-06-17 11:15:00
7:35 AM,68.0,64.4,88,29.98,3.0,Calm,Calm,-,N/A,,Partly Cloudy,0,2013-06-17 11:35:00
7:55 AM,69.8,66.2,88,29.99,5.0,Calm,Calm,-,N/A,,Clear,0,2013-06-17 11:55:00
8:15 AM,69.8,66.2,88,29.99,8.0,Calm,Calm,-,N/A,,Clear,0,2013-06-17 12:15:00
8:35 AM,69.8,66.2,88,29.98,8.0,SE,4.6,-,N/A,,Clear,140,2013-06-17 12:35:00
8:55 AM,71.6,68.0,88,29.99,8.0,SE,3.5,-,N/A,,Clear,130,2013-06-17 12:55:00
9:15 AM,73.4,69.8,88,29.99,9.0,Calm,Calm,-,N/A,,Clear,0,2013-06-17 13:15:00
9:35 AM,75.2,69.8,83,29.99,8.0,Calm,Calm,-,N/A,,Clear,0,2013-06-17 13:35:00
9:55 AM,75.2,69.8,83,29.99,9.0,ESE,3.5,-,N/A,,Clear,120,2013-06-17 13:55:00
10:15 AM,77.0,69.8,78,29.97,9.0,East,3.5,-,N/A,,Clear,100,2013-06-17 14:15:00
10:35 AM,77.0,69.8,78,29.97,3.0,East,3.5,-,N/A,,Clear,80,2013-06-17 14:35:00
10:55 AM,78.8,71.6,78,29.97,1.8,East,4.6,-,N/A,,Clear,80,2013-06-17 14:55:00
11:15 AM,80.6,69.8,70,29.97,10.0,East,3.5,-,N/A,,Clear,90,2013-06-17 15:15:00
11:35 AM,80.6,71.6,74,29.96,9.0,ESE,5.8,-,N/A,,Clear,110,2013-06-17 15:35:00
11:55 AM,80.6,71.6,74,29.97,10.0,ESE,4.6,-,N/A,,Clear,120,2013-06-17 15:55:00
12:15 PM,82.4,71.6,70,29.97,10.0,ESE,6.9,-,N/A,,Clear,120,2013-06-17 16:15:00
12:35 PM,82.4,71.6,70,29.97,10.0,South,5.8,-,N/A,,Clear,180,2013-06-17 16:35:00
12:55 PM,82.4,71.6,70,29.96,10.0,SSE,3.5,-,N/A,,Clear,150,2013-06-17 16:55:00
1:15 PM,84.2,71.6,66,29.96,10.0,South,4.6,-,N/A,,Clear,180,2013-06-17 17:15:00
1:35 PM,84.2,71.6,66,29.96,10.0,Calm,Calm,-,N/A,,Partly Cloudy,0,2013-06-17 17:35:00
1:55 PM,84.2,69.8,62,29.96,10.0,Calm,Calm,-,N/A,,Partly Cloudy,0,2013-06-17 17:55:00
2:15 PM,84.2,71.6,66,29.95,10.0,Calm,Calm,-,N/A,,Scattered Clouds,0,2013-06-17 18:15:00
2:35 PM,84.2,71.6,66,29.94,10.0,Calm,Calm,-,N/A,,Scattered Clouds,0,2013-06-17 18:35:00
2:55 PM,86.0,69.8,58,29.93,10.0,SSE,4.6,-,N/A,,Partly Cloudy,150,2013-06-17 18:55:00
3:15 PM,84.2,69.8,62,29.92,9.0,East,3.5,-,N/A,,Clear,90,2013-06-17 19:15:00
3:35 PM,84.2,71.6,66,29.90,10.0,East,5.8,-,N/A,,Partly Cloudy,100,2013-06-17 19:35:00
3:55 PM,84.2,69.8,62,29.89,10.0,Calm,Calm,-,N/A,,Partly Cloudy,0,2013-06-17 19:55:00
4:15 PM,84.2,69.8,62,29.88,10.0,NE,3.5,-,N/A,,Clear,40,2013-06-17 20:15:00
4:35 PM,84.2,71.6,66,29.89,9.0,Calm,Calm,-,N/A,,Clear,0,2013-06-17 20:35:00
5:15 PM,82.4,71.6,70,29.89,7.0,Calm,Calm,-,N/A,,Clear,0,2013-06-17 21:15:00
5:55 PM,78.8,71.6,78,29.87,9.0,South,4.6,-,N/A,,Clear,190,2013-06-17 21:55:00
6:15 PM,75.2,69.8,83,29.88,7.0,SW,6.9,-,N/A,Thunderstorm,Clear,220,2013-06-17 22:15:00
6:35 PM,75.2,66.2,73,29.89,9.0,SSW,15.0,-,N/A,,Clear,210,2013-06-17 22:35:00
6:55 PM,71.6,64.4,78,29.89,10.0,SW,18.4,-,N/A,Thunderstorm,Thunderstorm,220,2013-06-17 22:55:00
7:15 PM,69.8,62.6,78,29.90,10.0,WSW,10.4,23.0,0.02,Thunderstorm,Mostly Cloudy,250,2013-06-17 23:15:00
7:35 PM,69.8,64.4,83,29.96,10.0,ESE,9.2,18.4,0.03,Thunderstorm,Partly Cloudy,120,2013-06-17 23:35:00
7:55 PM,69.8,64.4,83,30.00,10.0,WNW,13.8,20.7,0.03,Thunderstorm,Scattered Clouds,300,2013-06-17 23:55:00
8:15 PM,69.8,64.4,83,29.99,9.0,NW,12.7,18.4,0.04,Thunderstorm,Mostly Cloudy,320,2013-06-18 00:15:00
8:35 PM,68.0,64.4,88,29.97,10.0,NW,8.1,17.3,0.05,,Mostly Cloudy,320,2013-06-18 00:35:00
8:55 PM,66.2,62.6,88,29.97,10.0,NW,4.6,-,0.05,,Partly Cloudy,320,2013-06-18 00:55:00
9:15 PM,66.2,62.6,88,29.99,10.0,ENE,5.8,-,0.01,,Clear,60,2013-06-18 01:15:00
9:35 PM,66.2,62.6,88,30.00,10.0,NE,10.4,-,0.01,,Mostly Cloudy,40,2013-06-18 01:35:00
9:55 PM,66.2,62.6,88,29.99,10.0,East,11.5,-,0.01,,Scattered Clouds,80,2013-06-18 01:55:00
10:15 PM,66.2,62.6,88,30.00,10.0,East,13.8,-,0.01,,Clear,90,2013-06-18 02:15:00
10:35 PM,66.2,62.6,88,30.01,10.0,East,12.7,-,0.02,,Scattered Clouds,100,2013-06-18 02:35:00
10:55 PM,66.2,62.6,88,30.02,10.0,ESE,13.8,-,0.04,,Overcast,120,2013-06-18 02:55:00
11:15 PM,64.4,60.8,88,30.00,10.0,SE,16.1,-,0.03,,Overcast,130,2013-06-18 03:15:00
11:35 PM,64.4,60.8,88,29.97,10.0,SE,16.1,-,0.05,,Mostly Cloudy,140,2013-06-18 03:35:00
11:55 PM,64.4,60.8,88,29.95,10.0,SE,11.5,-,0.06,,Partly Cloudy,140,2013-06-18 03:55:00